This is the latest recevied weather packets stored in our database for station/object N5PLO-10. If no packets are shown the sender has not sent any weather packets the latest 1 day(s).
| Time | Temp. | Humidity | Pressure | Rain* | Wind** | Luminosity | Snow |
|---|---|---|---|---|---|---|---|
| 1778000663 | 26.67° C | 84% | 1014.2 hPa | 0 mm | 0.45 m/s, 255° | 126 W/m² | - |
| 1778000359 | 26.67° C | 84% | 1014.2 hPa | 0 mm | 0.45 m/s, 66° | 146 W/m² | - |
| 1778000055 | 26.67° C | 85% | 1014.2 hPa | 0 mm | 0 m/s | 179 W/m² | - |
| 1777999750 | 26.11° C | 86% | 1014.2 hPa | 0 mm | 0.45 m/s, 280° | 178 W/m² | - |
| 1777999447 | 26.11° C | 87% | 1014.4 hPa | 0 mm | 0 m/s | 167 W/m² | - |
| 1777999145 | 26.11° C | 87% | 1014.3 hPa | 0 mm | 0.45 m/s, 239° | 153 W/m² | - |
| 1777998844 | 26.11° C | 87% | 1014.2 hPa | 0 mm | 0 m/s | 72 W/m² | - |
| 1777998542 | 26.11° C | 86% | 1014.4 hPa | 0 mm | 0 m/s | 76 W/m² | - |
| 1777998238 | 26.11° C | 86% | 1014.3 hPa | 0 mm | 0 m/s | 82 W/m² | - |
| 1777997935 | 26.11° C | 86% | 1013.9 hPa | 0 mm | 0.45 m/s, 210° | 107 W/m² | - |
| 1777997631 | 26.11° C | 86% | 1014 hPa | 0 mm | 0 m/s | 70 W/m² | - |
| 1777997329 | 25.56° C | 87% | 1014 hPa | 0 mm | 0 m/s | 158 W/m² | - |
| 1777997027 | 25.56° C | 87% | 1014 hPa | 0 mm | 0.45 m/s, 212° | 86 W/m² | - |
| 1777996724 | 25.56° C | 87% | 1014 hPa | 0 mm | 0 m/s | 76 W/m² | - |
| 1777996419 | 25.56° C | 87% | 1014.1 hPa | 0 mm | 0 m/s | 109 W/m² | - |
| 1777996116 | 25.56° C | 87% | 1013.9 hPa | 0 mm | 0 m/s | 72 W/m² | - |
| 1777995812 | 25.56° C | 87% | 1013.8 hPa | 0 mm | 0 m/s | 89 W/m² | - |
| 1777995508 | 25.56° C | 86% | 1013.8 hPa | 0 mm | 0.45 m/s, 238° | 71 W/m² | - |
| 1777995206 | 25.56° C | 87% | 1013.7 hPa | 0 mm | 0 m/s | 109 W/m² | - |
| 1777994903 | 25.56° C | 86% | 1013.8 hPa | 0 mm | 0 m/s | 67 W/m² | - |
| 1777994600 | 25.56° C | 86% | 1013.8 hPa | 0 mm | 0 m/s | 102 W/m² | - |
| 1777994294 | 25.56° C | 86% | 1013.7 hPa | 0 mm | 0 m/s | 75 W/m² | - |
| 1777993991 | 25.56° C | 86% | 1013.6 hPa | 0 mm | 0.45 m/s, 281° | 123 W/m² | - |
| 1777993688 | 25.56° C | 87% | 1013.5 hPa | 0 mm | 0 m/s | 103 W/m² | - |
| 1777993385 | 25.56° C | 87% | 1013.7 hPa | 0 mm | 0 m/s | 142 W/m² | - |
* Rain latest hour (hover to see other rain measurements)
** Current wind speed in m/s (hover to see current wind gust speed)